This demonstration page uses our WeatherBlox Daily Observations layout. Learn more.

38.80484, -77.04692

Hourly Observations for November 2, 2019

Temp ( °F °C ) Dew Point ( °F °C ) Humidity (%) Winds ( mph kmh ) Pressure ( in mb ) Visibility ( mi km ) Precip ( " mm )
12:52 am 00:52 Clear 42 5.6 29 -1.7 60 60 N 10 17 30.29 1026 10 16.0934 0 0
1:52 am 01:52 Clear 43 6.1 29 -1.7 58 58 NNE 14 22 30.29 1026 10 16.0934 0 0
2:52 am 02:52 Clear 41 5 29 -1.7 62 62 NNE 7 11 30.28 1026 10 16.0934 0 0
3:52 am 03:52 Clear 40 4.4 31 -0.6 70 70 E 7 11 30.28 1025 10 16.0934 0 0
4:52 am 04:52 Clear 40 4.4 29 -1.7 65 65 Calm 30.29 1026 10 16.0934 0 0
5:52 am 05:52 Clear 39 3.9 29 -1.7 67 67 NNE 5 7 30.29 1026 10 16.0934 0 0
6:52 am 06:52 Clear 38 3.3 31 -0.6 76 76 NNW 6 9 30.26 1025 10 16.0934 0 0
7:52 am 07:52 Sunny 38 3.3 31 -0.6 76 76 N 3 6 30.27 1025 10 16.0934 0 0
8:52 am 08:52 Sunny 42 5.6 32 0 68 68 Calm 30.27 1025 10 16.0934 0 0
9:52 am 09:52 Sunny 45 7.2 32 0 61 61 Calm 30.27 1025 10 16.0934 0 0
10:52 am 10:52 Mostly Sunny 45 7.2 29 -1.7 54 54 VRB 3 6 30.24 1024 10 16.0934 0 0
11:52 am 11:52 Mostly Sunny 48 8.9 28 -2.2 46 46 ESE 3 6 30.22 1023 10 16.0934 0 0
12:52 pm 12:52 Mostly Sunny 51 10.6 29 -1.7 43 43 Calm 30.18 1022 10 16.0934 0 0
1:52 pm 13:52 Mostly Sunny 52 11.1 31 -0.6 45 45 SSE 8 13 30.14 1021 10 16.0934 0 0
2:52 pm 14:52 Mostly Sunny 54 12.2 31 -0.6 42 42 VRB 3 6 30.12 1020 10 16.0934 0 0
3:52 pm 15:52 Mostly Sunny 55 12.8 32 0 42 42 SSW 10 17 30.1 1019 10 16.0934 0 0
4:52 pm 16:52 Mostly Sunny 54 12.2 31 -0.6 42 42 S 5 7 30.09 1019 10 16.0934 0 0
5:52 pm 17:52 Mostly Sunny 51 10.6 33 0.6 50 50 SSW 6 9 30.09 1019 10 16.0934 0 0
6:52 pm 18:52 Clear 50 10 34 1.1 54 54 SW 5 7 30.1 1019 10 16.0934 0 0
7:52 pm 19:52 Clear 50 10 34 1.1 54 54 W 3 6 30.11 1020 10 16.0934 0 0
8:52 pm 20:52 Clear 47 8.3 38 3.3 71 71 WSW 3 6 30.11 1020 10 16.0934 0 0
9:52 pm 21:52 Clear 46 7.8 38 3.3 73 73 SSW 3 6 30.11 1020 10 16.0934 0 0
10:52 pm 22:52 Clear 44 6.7 37 2.8 76 76 SW 5 7 30.13 1020 10 16.0934 0 0
11:52 pm 23:52 Clear 44 6.7 36 2.2 73 73 W 3 6 30.13 1020 10 16.0934 0 0

Powered by AerisWeather